Content
SEND FEEDBACK

Daily
Averages
Monthly
Summary
Guatemala

PUERTO BARRIOS, GUATEMALA


Home > Central America > Guatemala
Elevation: 3 feet     Latitude: 15 43N     Longitude: 088 36W

WEATHER
 
SELECT A DAY
Number of Records: 125,910;   Date Range: 7/7/96 - 9/15/14
 
SHARE

PRINT THIS DATA

[ ← Previous Day ]
WEATHER ALMANAC - JANUARY 31, 2013
[ Next Day → ]
[ °C ]   °F
Weather ElementAverageHighLow
Temperature74.1 °F86 °F (2:00 pm) (9:20 pm)
Dewpoint68.3 °F74 °F (12:00 pm) (7:00 pm)
Humidity83.1 %100 % (2:00 am)37 % (1:00 pm)
Barometer28.77 in30.09 in (10:00 pm) (7:00 pm)
Wind Speed3.6 mph11.5 mph (3:00 pm)
Weather ElementAverage
Visibility7.8 mi
Wind DirectionESE (118.7 °)

Weather ElementTotal
Precipitation---
Heating Degree Days22 (Base 65)
Averaged from 24 records on January 31, 2013
WEATHER CONDITIONS BREAKOUT
WIND DIRECTION BREAKOUT
WEATHER BY HOUR - JANUARY 31, 2013
[ °C ]   °F
Local TimeTemperatureDewpointHumidityBarometerVisibilityWind DirectionWind SpeedGust SpeedPrecipitationEventsConditions
2:00 AM68.0 °F68.0 °F100 %29.95 inCalmClear
3:00 AM69.8 °F68.0 °F94 %29.98 in6.2 miCalmPartly Cloudy
4:00 AM68.0 °F68.0 °F100 %29.92 in6.2 miEast (90°)4.6 mphPartly Cloudy
6:00 AM69.0 °F69.0 °F100 %29.98 in25.0 miCalmScattered Clouds
6:00 AM69.8 °F69.8 °F100 %29.98 in6.2 miCalmPartly Cloudy
7:00 AM73.4 °F71.6 °F94 %30.01 in6.2 miWest (270°)4.6 mphScattered Clouds
8:00 AM75.2 °F71.6 °F89 %30.04 in6.2 miWest (270°)6.9 mphPartly Cloudy
9:00 AM77.0 °F73.4 °F89 %30.06 in6.2 miWest (270°)4.6 mphScattered Clouds
10:00 AM80.6 °F71.6 °F74 %30.06 in6.2 miWest (270°)4.6 mphPartly Cloudy
11:00 AM82.4 °F71.6 °F70 %30.06 in6.2 miCalmPartly Cloudy
12:00 PM85.0 °F74.0 °F62 %30.06 in25.0 miWest (270°)9.2 mphScattered Clouds
12:00 PM84.2 °F73.4 °F70 %30.04 in6.2 miWest (270°)9.2 mphPartly Cloudy
1:00 PM84.2 °F55.4 °F37 %30.04 in6.2 miNorth (360°)4.6 mphPartly Cloudy
2:00 PM86.0 °F73.4 °F66 %30.01 in6.2 miWNW (300°)9.2 mphPartly Cloudy
3:00 PM84.2 °F73.4 °F70 %29.98 in6.2 miWNW (300°)11.5 mphPartly Cloudy
4:00 PM82.4 °F73.4 °F74 %29.98 in6.2 miNNE (20°)6.9 mphPartly Cloudy
5:00 PM80.6 °F73.4 °F79 %29.98 in6.2 miNNE (20°)4.6 mphPartly Cloudy
6:00 PM78.8 °F73.4 °F83 %30.01 in6.2 miNNE (20°)6.9 mphScattered Clouds
7:00 PM77.0 °F73.4 °F89 %30.04 in6.2 miCalmMostly Cloudy
8:00 PM75.2 °F73.4 °F94 %30.06 in6.2 miCalmMostly Cloudy
9:00 PM77.0 °F73.4 °F89 %30.06 in6.2 miCalmMostly Cloudy
9:20 PM0.0 °F0.0 °F5.0 miCalmRainLight Rain
10:00 PM75.2 °F73.4 °F94 %30.09 in6.2 miCalmRainLight Rain
11:00 PM75.2 °F73.4 °F94 %30.06 in6.2 miCalmMostly Cloudy
Hourly data recorded from MGPB, located miles away from Puerto Barrios, Guatemala







STORIES FROM OUR PARTNERS